Retour au catalogue

TITAN 3C TRANSTAGE DEB

ActifHEO
NORAD 5992·DEBRIS·🇺🇸 United States

Lancé Dec 21, 1965 depuis Cape Canaveral Space Force Station

Loading…

Prochains Passages (prochaines 24 heures)

TLE

FraisSource: Space-Track

Époque: Sep 13, 2026, 10:09 UTC

1 05992U 65108S   26256.42302054  .00000252  00000-0  28485-1 0  9993
2 05992  27.2841  46.4648 6637078 207.0282  92.2992  2.66187070 19269

Suivez TITAN 3C TRANSTAGE DEB en temps réel avec AllMySat

Download on the App Store